Temperature
13 13 13 14 17 18 19 21 21 21 21 21 21 21 23 24 24 24 21 21 20 20 19 18 18 17 17 17 16 16 16 16 16 16 16 15 15 15 15 15 15 14 14 14 14 13 13 14 13
12 12 13 15 17 18 20 21 20 21 21 19 20 20 22 23 22 22 21 21 20 19 18 18 17 17 16 16 16 16 16 16 16 15 15 15 15 15 15 14 14 14 14 13 13 13 13 13 13
12 12 14 16 17 19 21 20 21 21 20 19 20 20 21 22 21 20 20 20 19 18 17 17 17 16 16 16 16 16 16 15 15 15 15 15 15 15 14 14 14 13 13 13 13 13 13 13 13
11 12 14 16 17 19 20 21 20 20 19 19 19 21 20 19 19 19 20 19 18 18 17 16 16 16 16 16 16 16 15 15 15 15 15 15 14 14 14 14 13 13 13 13 13 13 13 13 13
11 14 15 15 17 19 20 19 19 19 20 19 19 20 20 19 19 19 19 19 18 17 16 16 16 16 16 16 16 16 15 15 15 14 14 14 14 14 13 13 13 13 12 12 12 12 12 12 12
12 14 15 16 17 19 19 18 18 19 19 19 19 19 20 18 18 18 18 17 17 16 16 15 16 16 16 16 15 15 15 15 14 14 14 14 13 13 13 13 13 12 12 12 12 12 12 12 12
12 13 14 16 17 18 18 18 18 18 19 19 18 19 19 18 17 17 17 16 16 15 15 15 15 15 15 15 15 15 15 14 14 14 14 13 13 13 13 12 12 12 12 12 12 11 11 11 12
11 13 13 15 15 17 17 17 17 17 18 18 17 19 19 18 17 16 16 15 15 15 15 15 15 15 15 15 15 15 14 14 14 13 13 13 13 12 12 12 12 12 12 11 11 11 11 11 11
10 11 13 14 15 16 16 16 16 16 16 16 16 17 16 16 15 15 15 15 14 14 14 15 15 15 15 15 14 14 14 14 13 13 13 13 12 12 11 11 11 11 11 11 11 11 11 11 11
10 11 13 15 15 15 15 15 15 15 16 16 16 15 15 15 15 14 14 14 14 14 14 14 15 15 15 14 14 14 14 13 13 13 12 12 12 11 11 11 11 11 11 11 11 11 11 10 10
11 11 13 14 13 13 13 14 14 14 15 16 16 15 15 14 14 14 14 14 14 14 14 14 14 14 14 14 14 14 13 13 13 12 12 12 11 11 11 11 11 10 10 10 11 10 10 10 10
11 11 12 12 12 11 12 12 13 13 14 14 14 14 14 14 14 14 14 14 14 14 14 14 14 14 14 14 14 13 13 13 12 12 12 12 11 11 11 11 10 10 10 10 10 10 10 10 10
10 11 11 11 11 11 11 11 12 12 13 13 13 13 13 13 13 13 13 13 13 13 13 13 14 14 14 14 14 13 13 13 12 12 12 11 11 11 11 10 10 10 10 10 10 10 10 10 10
10 10 10 10 10 10 11 11 12 12 12 12 13 13 13 13 13 13 13 13 13 13 13 13 13 13 14 14 14 13 13 13 12 12 12 11 11 11 11 10 10 10 10 10 10 10 10 10 10
8 9 10 10 10 10 11 11 12 12 12 12 12 13 13 13 13 13 13 12 12 13 13 13 13 13 13 13 13 13 13 13 12 12 12 11 11 11 11 10 10 10 10 10 9 9 9 9 9
8 8 9 11 11 11 10 10 13 12 12 12 12 13 13 13 13 13 13 12 12 12 12 13 13 13 13 13 13 13 13 13 12 12 12 11 11 11 11 10 10 10 10 9 9 9 9 9 9
8 8 9 10 11 10 9 10 12 12 12 12 12 12 12 12 12 12 12 12 12 12 12 12 13 13 13 13 13 13 13 13 12 12 12 11 11 11 11 10 10 10 10 9 9 9 9 9 9
8 9 9 9 10 10 9 10 11 11 12 12 12 12 12 12 12 12 12 12 12 12 12 12 12 13 13 13 13 13 13 13 12 12 12 11 11 11 10 10 10 10 10 9 9 9 9 9 9
7 7 7 9 10 9 9 9 11 11 11 12 12 12 12 12 12 12 12 11 11 11 12 12 12 12 12 13 13 12 12 12 12 12 12 11 11 11 10 10 10 10 10 10 9 9 9 9 9
6 6 7 8 9 8 8 9 11 11 11 11 12 12 12 12 12 11 11 11 11 11 11 12 12 12 12 12 12 12 12 12 12 12 11 11 11 11 11 10 10 10 10 9 9 9 9 9 9
7 7 7 7 8 8 8 9 10 11 11 11 11 11 11 11 12 11 11 11 11 11 11 12 12 12 12 12 12 12 12 12 12 12 12 11 11 11 11 11 10 10 10 10 9 9 9 9 9
7 8 7 7 6 7 7 8 11 11 11 11 11 11 11 11 11 11 10 10 11 11 11 11 11 12 12 12 12 12 11 11 12 12 12 11 11 11 11 11 10 10 10 10 10 10 9 9 9
7 7 7 6 6 6 7 7 10 11 10 11 12 11 11 10 10 10 10 10 11 11 11 11 11 11 12 12 12 12 12 11 11 11 11 11 11 11 11 11 10 10 10 10 10 10 9 9 9
6 6 6 6 6 5 7 7 9 11 10 11 11 11 10 10 10 10 10 10 10 10 10 11 11 11 11 12 12 12 12 11 11 11 11 11 11 11 11 11 11 11 10 10 10 10 10 9 9
6 5 5 6 5 7 8 8 9 10 10 10 10 10 10 10 10 9 9 9 9 10 10 10 11 11 11 11 12 12 12 11 11 11 11 11 11 11 11 11 11 11 11 10 10 10 10 10 9
6 5 5 5 6 8 7 8 10 10 10 9 9 9 9 9 9 9 9 9 9 9 10 10 10 11 11 11 12 12 11 11 11 11 11 11 12 12 12 12 11 11 11 11 10 10 10 10 9
5 5 6 5 5 5 7 8 9 9 9 9 9 8 8 8 8 8 8 8 8 9 9 10 10 11 11 11 12 12 11 11 11 11 11 11 12 12 12 12 12 11 11 11 10 10 10 10 10
6 6 5 4 4 5 7 8 9 8 8 8 9 8 8 8 7 8 8 8 8 8 9 9 10 10 11 11 11 11 12 11 11 11 11 11 12 12 12 12 12 12 11 11 11 10 10 10 10
5 4 4 4 4 5 6 8 9 8 8 8 8 8 7 7 7 7 7 7 8 8 8 9 9 10 10 11 11 11 12 11 11 11 11 12 12 12 12 12 12 12 11 11 11 11 10 10 10
5 5 4 4 4 4 5 7 9 8 8 8 8 7 7 6 6 6 7 7 7 8 8 8 9 9 10 11 11 11 12 11 11 11 12 12 12 12 12 11 11 11 11 11 11 11 10 10 10
Wind_Speed
4 5 4 4 6 9 17 14 11 8 7 7 7 7 8 11 8 3 3 5 9 14 21 26 25 26 25 24 23 23 22 21 21 21 20 20 19 18 18 17 17 17 17 17 17 17 17 17 17
4 5 5 5 9 15 16 16 17 16 7 3 7 9 10 11 9 5 1 4 10 14 20 25 26 26 25 25 24 23 22 22 21 21 21 20 19 19 18 18 17 17 17 17 17 17 17 17 17
5 6 6 6 12 19 14 9 13 14 11 8 7 8 9 8 6 4 2 4 10 14 19 23 26 26 26 25 24 24 23 22 22 21 21 20 19 19 18 18 18 18 18 17 17 17 17 17 16
4 6 7 12 23 22 19 10 6 7 8 9 9 8 6 5 3 4 2 5 10 14 19 22 26 26 26 25 25 24 23 23 22 21 21 20 20 19 19 18 18 18 18 17 17 16 16 16 16
5 6 12 19 27 22 17 15 11 11 10 9 11 11 10 5 4 4 2 6 10 13 17 22 25 26 25 25 25 24 24 23 22 21 21 20 20 19 19 19 18 18 18 17 17 16 16 15 15
6 6 13 23 26 22 19 17 16 18 16 13 12 15 14 7 5 3 3 6 9 12 15 20 25 25 25 25 25 25 24 24 23 22 21 21 20 20 19 19 19 18 18 17 17 16 15 15 15
8 10 18 23 23 22 18 15 18 19 19 17 14 16 13 9 4 3 4 6 9 12 14 17 22 24 24 25 25 25 24 23 23 22 21 21 21 20 20 19 18 18 17 17 16 16 15 15 14
7 8 17 20 22 22 15 15 16 18 20 15 13 14 13 8 3 3 4 6 8 11 14 16 19 22 23 24 25 24 24 23 23 22 21 21 20 20 19 19 18 17 17 17 16 16 15 15 14
6 11 19 19 18 17 13 14 15 15 18 17 16 16 12 8 6 6 7 8 9 11 13 15 17 19 20 21 23 24 23 23 22 21 22 21 19 18 18 17 17 17 17 16 16 15 15 15 13
8 15 23 18 17 17 16 17 17 15 20 20 18 15 12 9 10 10 11 12 13 14 15 15 16 17 18 17 19 20 20 21 20 20 21 18 16 15 16 18 17 17 16 16 15 15 15 11 11
10 16 18 18 18 18 19 19 18 20 23 21 19 17 13 12 12 14 14 14 15 15 15 16 16 16 16 13 14 13 14 16 18 20 20 17 15 14 14 14 15 15 15 14 15 14 11 9 8
13 17 18 18 16 17 19 19 20 22 24 20 19 17 14 15 15 15 15 15 14 14 16 16 16 15 15 14 13 13 12 12 13 17 20 16 11 11 12 11 13 13 11 11 11 9 10 9 9
17 17 17 18 18 18 20 22 23 25 23 20 17 16 18 18 17 16 16 16 15 15 16 16 16 16 14 14 12 13 13 14 15 15 18 17 12 12 12 10 11 12 11 11 10 9 10 9 8
10 14 17 18 19 18 21 24 23 23 20 20 19 19 19 19 19 17 16 16 17 17 17 16 17 17 15 14 13 13 13 13 15 15 18 19 15 13 12 11 11 11 11 11 10 10 9 8 7
11 15 17 17 17 14 15 20 22 21 18 20 21 20 20 20 19 19 18 17 17 17 16 17 17 17 17 16 15 13 13 14 13 14 18 19 17 16 13 11 11 11 12 12 10 10 8 7 7
9 11 12 11 12 11 11 20 18 15 16 19 20 20 19 19 20 19 18 17 17 17 16 16 14 16 17 16 15 12 13 14 13 15 17 19 19 18 14 11 11 12 12 11 9 9 8 7 7
7 10 15 15 10 10 12 19 18 15 16 19 19 19 19 19 19 18 18 17 16 17 16 15 15 16 17 16 14 14 14 14 13 14 15 17 19 19 15 11 11 13 11 10 9 9 8 8 7
11 14 16 16 11 13 17 22 21 18 18 19 19 19 19 19 18 16 15 15 15 16 16 16 15 15 15 14 13 12 13 13 13 13 15 18 18 19 16 12 13 13 11 10 10 10 8 7 7
14 17 19 19 16 15 19 23 22 19 17 18 17 17 18 18 16 14 13 13 13 14 16 16 15 16 13 12 13 13 13 13 13 13 17 19 19 19 16 12 13 13 12 12 13 11 10 8 7
14 17 19 17 13 13 18 23 21 18 18 17 17 17 17 17 14 13 12 12 13 14 15 17 16 16 16 14 13 13 13 12 13 12 16 19 19 19 16 16 14 14 12 14 13 12 9 7 8
14 15 16 17 17 13 14 17 16 14 14 14 15 15 15 15 13 12 12 12 12 13 14 15 17 17 17 16 12 11 11 10 11 14 14 17 20 20 18 18 16 15 14 13 14 14 13 10 9
14 11 13 15 12 9 7 11 14 12 12 12 12 12 12 12 12 11 11 12 13 13 13 14 15 17 17 17 15 17 14 13 13 14 14 17 19 20 20 19 18 16 14 14 15 14 12 12 10
10 11 13 14 13 13 12 10 12 9 12 12 11 10 10 10 10 10 10 10 11 11 11 12 13 16 17 18 18 18 17 15 13 14 16 17 17 19 20 19 18 17 15 16 16 15 14 12 11
10 10 11 10 9 10 12 11 11 8 10 11 9 9 9 9 9 8 7 7 8 8 9 11 12 15 15 17 19 20 20 18 17 17 16 16 14 16 20 19 18 17 15 16 16 15 16 13 13
5 6 4 4 6 8 7 9 10 8 7 8 8 8 7 6 7 6 6 5 6 7 8 10 13 15 16 17 19 20 21 21 20 19 18 16 15 15 20 19 18 17 16 16 16 15 15 15 15
6 6 6 6 8 10 7 10 8 6 6 6 7 6 6 5 5 5 5 5 6 6 8 10 12 14 16 17 18 18 19 17 16 19 16 17 15 16 19 20 19 19 18 17 16 15 15 14 15
5 7 7 8 11 10 9 10 9 7 7 6 6 7 7 6 6 6 5 6 6 6 7 10 11 13 15 17 18 18 18 18 18 19 18 15 15 14 19 20 20 19 19 18 17 14 16 14 14
9 6 5 6 6 9 11 12 8 6 6 6 7 7 7 8 8 8 7 6 6 6 7 8 10 13 14 16 16 14 18 18 18 18 19 18 17 16 17 19 20 19 19 18 17 15 15 15 14
7 7 7 7 7 8 11 8 4 5 6 7 9 9 9 9 9 9 8 7 6 6 6 7 9 10 12 14 15 15 17 17 17 17 19 18 17 18 18 18 20 20 19 19 17 17 16 16 15
10 11 10 8 9 9 10 11 5 6 7 9 10 10 10 10 10 10 9 8 6 6 6 7 8 9 10 11 14 15 16 17 17 18 18 18 18 18 18 18 18 19 19 19 19 18 17 17 16
Wind_Direction
242 205 200 201 221 232 239 233 229 226 225 224 218 218 229 228 222 238 50 162 171 169 170 169 170 166 165 163 159 156 154 153 151 147 144 142 140 138 136 134 131 127 124 120 117 115 113 110 106
224 184 196 212 230 234 239 233 230 231 227 208 218 231 239 242 248 291 11 164 175 172 172 172 169 167 166 164 160 157 156 154 152 148 146 144 143 141 138 136 134 131 126 123 120 117 114 111 108
212 200 210 217 230 234 241 227 237 239 235 232 235 237 243 245 243 263 1 176 179 177 176 171 168 169 167 164 161 159 158 156 153 151 149 148 146 143 140 136 134 131 128 125 123 119 116 113 109
197 196 220 232 236 235 244 246 239 238 231 231 241 246 236 245 275 310 330 186 183 181 178 171 169 171 169 166 162 161 160 157 155 153 152 150 148 145 141 136 135 132 130 128 125 121 119 116 113
215 217 226 235 242 243 245 251 253 253 247 236 240 252 255 248 273 301 258 193 187 183 180 174 172 173 170 168 164 162 161 159 158 157 155 152 149 146 141 139 137 136 134 132 128 125 124 121 116
208 221 234 241 245 245 245 246 250 255 255 254 254 260 263 260 270 285 232 202 191 184 182 177 175 174 172 170 166 163 162 161 161 160 156 153 150 146 143 142 141 139 138 136 133 130 128 124 119
226 229 242 251 257 254 250 249 248 253 255 254 257 263 263 257 276 274 224 205 194 187 185 182 179 178 174 170 167 164 163 162 162 159 156 153 150 147 145 144 144 143 141 139 137 134 130 125 122
235 241 249 249 256 260 259 252 251 255 260 264 258 256 259 270 280 252 220 204 198 193 191 188 184 181 179 174 168 164 163 162 161 158 153 151 150 149 147 147 146 145 144 142 139 137 133 127 123
221 235 245 247 254 265 265 259 257 262 262 259 253 260 277 285 272 249 230 215 204 201 198 192 190 186 182 177 170 166 163 160 158 156 149 151 156 154 152 150 148 148 147 144 142 139 131 127 123
218 237 246 253 260 271 273 268 268 264 260 258 257 258 263 256 251 240 231 221 212 206 203 198 193 190 183 176 172 172 169 166 167 165 162 163 159 156 153 146 149 148 146 144 141 137 136 142 137
228 244 259 264 267 272 273 271 270 264 260 257 259 261 257 251 246 240 234 229 219 211 205 203 198 192 186 178 174 173 172 171 172 169 168 163 157 154 155 155 153 152 152 149 143 148 152 152 143
247 252 262 267 273 273 271 271 267 260 263 269 268 264 255 249 243 240 238 232 225 218 209 206 200 195 191 183 178 175 172 172 171 171 169 163 160 162 164 164 163 162 160 155 158 159 155 153 153
249 260 265 269 272 271 272 266 265 264 266 268 268 260 254 252 249 246 243 235 230 224 214 209 202 199 194 187 180 179 175 174 171 170 172 168 166 168 168 166 166 166 162 162 162 163 158 157 155
265 269 270 271 271 270 269 268 263 260 262 263 260 257 255 253 249 245 241 236 230 227 221 213 207 201 195 190 183 181 177 173 172 173 174 172 171 171 172 169 169 167 167 166 168 165 161 159 160
267 274 273 264 263 265 276 267 255 260 264 262 260 257 256 254 248 243 238 235 232 227 224 217 210 202 197 193 186 181 176 174 175 175 176 176 174 175 174 173 173 171 170 169 170 165 166 162 163
259 259 265 266 264 262 262 268 269 270 267 264 261 259 257 254 249 245 240 235 231 227 221 219 211 205 199 193 187 181 178 176 177 176 177 179 178 178 176 175 176 173 171 172 171 171 172 170 173
247 263 272 280 265 270 260 272 280 278 269 265 262 260 257 255 250 246 240 235 229 223 218 217 209 205 199 192 188 182 179 178 178 177 178 181 181 180 180 178 175 173 174 177 175 178 178 175 175
281 280 279 279 280 279 273 274 280 282 272 265 263 259 256 253 251 247 240 236 229 222 215 212 209 203 197 189 186 181 180 181 180 180 181 181 182 183 182 179 179 177 178 180 181 179 179 177 172
279 282 280 284 290 284 277 277 279 279 274 266 262 260 257 253 252 245 238 233 229 222 215 208 209 201 193 189 185 184 184 183 182 184 183 184 183 184 184 181 182 183 185 185 185 180 178 178 173
270 276 280 288 295 289 282 280 277 272 267 264 263 261 259 256 249 241 236 230 224 220 216 209 209 203 196 194 190 189 186 186 184 183 186 187 187 187 187 185 184 186 188 189 187 183 183 179 185
267 268 280 289 301 284 283 281 269 266 264 263 260 259 258 256 251 242 234 229 223 217 215 212 210 205 198 193 190 183 180 180 185 187 188 190 190 190 190 190 188 189 190 191 190 189 189 185 189
278 274 279 283 288 284 276 287 281 275 267 262 262 261 258 254 251 244 234 231 225 218 215 214 213 209 200 192 193 187 187 190 194 190 190 190 192 192 193 193 193 191 193 194 193 194 195 191 191
278 289 279 274 275 277 263 265 277 271 268 265 263 263 258 251 248 244 236 235 233 222 215 212 213 212 202 195 194 194 196 197 194 190 190 189 192 194 195 194 195 195 196 197 195 194 197 198 199
284 287 277 259 258 261 253 250 277 271 273 277 276 276 267 257 253 247 243 243 242 230 220 211 211 213 205 201 196 198 197 196 192 190 190 191 191 194 196 196 196 197 198 198 197 196 198 201 203
265 284 282 255 238 257 259 251 262 285 289 286 288 288 287 280 270 255 245 243 249 236 224 218 215 213 206 204 201 201 200 197 196 194 194 192 192 194 196 195 197 198 199 198 196 196 200 203 204
254 248 263 280 274 287 271 252 270 286 293 296 294 299 304 302 304 284 264 253 247 243 231 222 223 218 208 206 204 202 203 200 199 198 195 196 197 197 195 195 198 198 197 197 197 198 201 203 206
252 242 258 274 278 276 263 265 273 277 284 292 299 308 310 307 309 301 284 269 258 249 245 234 230 222 213 209 205 204 204 204 202 199 199 199 199 198 195 195 197 197 197 197 197 201 201 202 205
246 262 248 248 274 271 272 271 279 297 301 307 311 314 312 313 311 305 299 289 274 258 250 242 234 225 219 212 208 206 205 206 205 200 200 200 198 195 195 196 196 196 196 196 197 201 201 200 202
233 236 238 251 257 271 278 276 291 309 314 310 310 311 309 313 313 309 300 291 284 279 265 252 240 228 224 217 211 210 206 205 206 203 202 201 198 195 196 197 197 196 196 195 197 199 197 200 200
251 245 238 251 256 254 271 273 272 300 309 313 314 315 315 316 313 311 303 296 288 284 276 264 244 235 230 225 215 212 210 205 204 205 203 201 200 197 197 196 197 197 195 195 197 198 196 199 200
Height
1508 1510 1512 1514 1513 1505 1492 1484 1484 1485 1485 1485 1486 1486 1483 1481 1482 1483 1480 1478 1478 1479 1481 1483 1486 1490 1493 1497 1500 1502 1505 1508 1510 1512 1514 1516 1517 1519 1520 1521 1523 1524 1525 1525 1526 1527 1527 1528 1528
1507 1509 1513 1512 1504 1495 1483 1479 1481 1481 1482 1485 1485 1485 1483 1480 1480 1479 1477 1476 1477 1479 1481 1482 1485 1489 1492 1496 1499 1502 1505 1507 1510 1512 1514 1516 1517 1519 1520 1521 1523 1524 1525 1526 1526 1527 1528 1528 1529
1506 1508 1510 1504 1494 1483 1475 1476 1478 1479 1482 1484 1483 1482 1481 1478 1479 1479 1476 1476 1477 1478 1480 1482 1485 1488 1492 1495 1498 1501 1504 1507 1509 1511 1513 1515 1517 1519 1520 1521 1523 1524 1525 1526 1527 1528 1529 1529 1529
1505 1507 1505 1497 1481 1474 1474 1475 1479 1480 1481 1482 1482 1479 1478 1478 1477 1477 1475 1475 1476 1478 1480 1481 1484 1488 1491 1494 1497 1500 1503 1506 1508 1511 1513 1515 1517 1518 1520 1521 1523 1524 1525 1526 1527 1528 1529 1530 1530
1503 1502 1496 1486 1475 1472 1474 1478 1480 1479 1478 1479 1480 1476 1474 1476 1475 1474 1474 1474 1475 1477 1479 1481 1484 1487 1491 1494 1496 1499 1502 1505 1507 1510 1513 1515 1516 1518 1520 1521 1522 1524 1525 1527 1528 1529 1530 1530 1531
1501 1497 1489 1476 1469 1470 1474 1478 1479 1478 1476 1477 1478 1475 1472 1474 1473 1472 1472 1472 1474 1475 1478 1480 1483 1486 1490 1493 1496 1498 1501 1504 1507 1509 1512 1514 1516 1518 1519 1521 1522 1524 1526 1527 1528 1530 1530 1531 1532
1497 1492 1481 1473 1468 1468 1471 1475 1476 1475 1473 1474 1475 1472 1470 1471 1470 1469 1470 1471 1472 1474 1476 1479 1482 1485 1488 1491 1494 1497 1500 1503 1506 1508 1511 1514 1516 1518 1519 1521 1522 1524 1526 1527 1529 1530 1531 1532 1533
1493 1491 1479 1474 1471 1468 1471 1473 1474 1474 1471 1472 1473 1469 1467 1469 1467 1467 1468 1469 1470 1472 1475 1478 1480 1483 1486 1490 1493 1496 1499 1502 1505 1508 1510 1513 1515 1517 1519 1521 1522 1524 1526 1528 1529 1531 1532 1533 1533
1492 1489 1474 1470 1470 1468 1470 1471 1471 1471 1470 1469 1469 1467 1467 1466 1465 1465 1466 1467 1468 1470 1472 1475 1478 1481 1484 1487 1490 1494 1497 1501 1504 1507 1509 1512 1515 1517 1519 1521 1522 1524 1526 1528 1530 1531 1532 1533 1534
1487 1479 1468 1469 1470 1469 1470 1469 1469 1469 1465 1464 1464 1464 1464 1464 1463 1463 1463 1464 1465 1467 1469 1472 1474 1477 1481 1484 1487 1491 1494 1498 1501 1504 1507 1511 1513 1516 1518 1520 1522 1524 1526 1528 1530 1531 1532 1534 1535
1480 1473 1469 1470 1471 1470 1468 1467 1467 1465 1459 1460 1460 1460 1460 1460 1460 1460 1460 1460 1462 1464 1466 1468 1471 1474 1477 1480 1484 1487 1491 1495 1499 1502 1505 1508 1511 1514 1517 1519 1522 1524 1526 1528 1529 1531 1533 1534 1535
1477 1471 1471 1469 1470 1469 1466 1464 1462 1460 1456 1458 1457 1456 1456 1455 1455 1455 1456 1457 1459 1460 1462 1465 1467 1470 1473 1476 1480 1483 1487 1491 1495 1499 1502 1505 1509 1512 1515 1517 1520 1522 1525 1527 1529 1531 1532 1534 1535
1473 1469 1469 1468 1467 1466 1464 1460 1457 1453 1453 1453 1452 1452 1451 1451 1451 1451 1452 1453 1454 1456 1458 1460 1463 1466 1469 1472 1476 1479 1483 1487 1491 1495 1499 1502 1506 1509 1513 1516 1518 1521 1523 1525 1528 1530 1532 1533 1535
1470 1468 1466 1465 1463 1461 1459 1454 1452 1445 1448 1448 1447 1446 1446 1446 1446 1446 1447 1448 1449 1450 1453 1456 1459 1462 1465 1468 1471 1475 1480 1484 1488 1492 1496 1500 1503 1507 1510 1513 1516 1519 1521 1524 1526 1529 1531 1533 1534
1471 1467 1461 1458 1457 1456 1455 1446 1442 1440 1442 1441 1440 1440 1440 1440 1440 1440 1441 1442 1444 1445 1448 1450 1453 1457 1460 1463 1467 1471 1476 1480 1484 1488 1492 1496 1500 1504 1508 1511 1514 1517 1519 1522 1525 1527 1530 1531 1533
1467 1462 1456 1450 1452 1451 1454 1440 1435 1437 1437 1435 1434 1433 1433 1433 1433 1434 1435 1436 1438 1440 1442 1444 1448 1451 1454 1458 1463 1467 1472 1476 1480 1484 1488 1493 1497 1501 1505 1508 1512 1514 1517 1520 1523 1525 1528 1530 1532
1460 1455 1449 1446 1446 1447 1446 1437 1431 1432 1431 1429 1428 1426 1426 1426 1426 1427 1428 1430 1431 1434 1436 1438 1441 1445 1449 1453 1458 1463 1467 1472 1476 1481 1485 1489 1493 1498 1502 1505 1509 1512 1515 1518 1520 1523 1526 1528 1531
1454 1451 1447 1444 1442 1443 1440 1433 1428 1428 1426 1423 1421 1420 1419 1418 1419 1420 1422 1423 1425 1427 1430 1432 1435 1439 1443 1448 1453 1457 1462 1467 1472 1476 1480 1485 1489 1494 1498 1502 1506 1509 1512 1515 1518 1521 1524 1526 1529
1458 1455 1449 1443 1441 1441 1434 1428 1423 1422 1420 1416 1414 1413 1412 1412 1413 1414 1415 1417 1419 1421 1424 1426 1429 1433 1436 1441 1445 1450 1456 1461 1466 1471 1476 1481 1485 1490 1494 1498 1502 1505 1509 1512 1515 1518 1521 1524 1526
1457 1454 1446 1439 1439 1438 1430 1422 1416 1414 1412 1411 1409 1408 1407 1407 1407 1408 1409 1411 1412 1414 1417 1420 1423 1427 1431 1435 1440 1446 1451 1457 1462 1467 1472 1477 1481 1485 1490 1494 1498 1501 1505 1509 1512 1515 1518 1521 1524
1452 1449 1444 1441 1437 1434 1430 1415 1407 1404 1404 1404 1403 1402 1402 1401 1402 1403 1404 1405 1407 1408 1411 1414 1418 1421 1425 1430 1435 1441 1447 1452 1456 1461 1466 1471 1476 1481 1485 1490 1494 1498 1501 1504 1508 1511 1514 1517 1521
1446 1443 1443 1441 1439 1430 1427 1415 1399 1397 1398 1398 1397 1397 1396 1396 1397 1398 1399 1400 1401 1403 1405 1408 1412 1415 1420 1424 1429 1433 1438 1443 1447 1454 1460 1465 1471 1476 1480 1485 1489 1493 1497 1501 1504 1508 1511 1514 1517
1444 1443 1442 1438 1436 1432 1423 1421 1398 1394 1393 1391 1391 1392 1392 1392 1392 1393 1393 1395 1396 1398 1399 1402 1405 1410 1414 1418 1423 1428 1433 1438 1444 1449 1454 1460 1465 1470 1475 1480 1484 1488 1492 1496 1500 1504 1507 1510 1513
1445 1443 1437 1433 1433 1429 1415 1414 1395 1389 1389 1387 1388 1388 1388 1388 1388 1388 1389 1391 1392 1393 1395 1398 1401 1404 1408 1412 1417 1422 1427 1432 1438 1442 1447 1453 1458 1464 1469 1474 1479 1483 1487 1492 1495 1499 1503 1506 1510
1445 1444 1435 1429 1426 1414 1406 1406 1393 1388 1388 1388 1387 1387 1386 1385 1385 1385 1385 1386 1388 1389 1390 1393 1396 1399 1402 1407 1411 1416 1421 1426 1431 1436 1441 1446 1451 1456 1462 1467 1472 1477 1482 1487 1491 1495 1498 1502 1505
1442 1443 1439 1430 1414 1404 1405 1399 1388 1388 1389 1388 1388 1387 1386 1384 1382 1382 1382 1383 1384 1385 1386 1389 1391 1393 1397 1401 1405 1410 1415 1420 1426 1431 1436 1440 1445 1450 1456 1461 1467 1472 1477 1481 1486 1490 1493 1497 1500
1440 1438 1436 1435 1424 1419 1401 1390 1386 1387 1386 1386 1386 1385 1383 1382 1381 1380 1380 1380 1380 1381 1382 1384 1386 1388 1391 1395 1399 1404 1409 1414 1420 1425 1431 1435 1440 1445 1451 1456 1461 1466 1471 1476 1480 1484 1488 1491 1495
1439 1436 1437 1435 1426 1410 1394 1387 1383 1383 1384 1384 1383 1382 1382 1381 1379 1378 1377 1377 1377 1377 1378 1380 1381 1383 1386 1389 1393 1398 1403 1408 1413 1419 1424 1429 1434 1439 1444 1449 1455 1460 1465 1470 1474 1478 1482 1486 1489
1436 1436 1434 1429 1425 1415 1398 1386 1383 1384 1384 1384 1383 1382 1381 1379 1377 1376 1375 1374 1374 1374 1374 1375 1377 1379 1381 1383 1387 1392 1397 1402 1407 1412 1417 1423 1428 1433 1438 1443 1448 1453 1458 1463 1468 1472 1476 1480 1484
1431 1429 1429 1429 1422 1417 1406 1390 1382 1383 1384 1384 1383 1381 1380 1378 1376 1374 1373 1372 1371 1370 1371 1371 1372 1374 1376 1378 1382 1386 1391 1396 1401 1405 1411 1416 1421 1427 1432 1437 1442 1447 1452 1457 1461 1466 1470 1474 1478